YAOGAN-36 04B

导读

YAOGAN-36 04B(遥感三十六号04B)是中国于2022年12月14日8时发射的遥感卫星,由长征系列运载火箭在西昌卫星发射中心送入预定轨道。作为中国遥感卫星家族成员,该卫星主要用于开展空间科学试验、国土资源普查、农作物估产及防灾减灾等领域,将为国民经济发展、科研探索提供有力的数据支撑,推动我国遥感应用技术持续发展。

基本信息
目录编号:
54748
目录名称:
YAOGAN-36 04B
国际标识:
2022-171C
轨道中心:
EARTH
卫星名称:
YAOGAN-36 04B
卫星全名:
--
卫星状态:
在轨 (已飞行1360 天)
发射日期:
2022-12-14 UTC
国别 :
中国 (CN)
星等 :
--
轨道信息
数据来源 国际轨道数据 AOE轨道数据
星历时间 2026-09-04T06:45:45+0800
13小时前
查看轨道信息
2026-09-02T09:00:00+0800
2天前
查看轨道信息
半长轴 6874.483km 6874.566km
偏心率 0.0006802 0.0006497
轨道倾角 35.006° 35.005°
近地点辐角 204.333° 185.780°
升交点赤经 59.643° 71.636°
平近点角 155.706° 141.624°
近地点 491.669km 491.962km
远地点 501.023km 500.896km
周期 94.541分钟 94.543分钟
每日圈数 15.231503 15.231227
详细信息
使用方式:
暂无
2D轨道图
3D轨道图
轨道高度分析图
轨道倾角分析图
轨道综合分析图
查看轨道综合分析图
交会数据列表
事件ID 空间交会对象 最接近时刻(TCA) 交会距离 交会风险概率(CRP) 交会风险指数(CRI) 操作
CDM_260903-161205-370605-474822
2026-09-03T
16:12:52+0000
1.775 km
极远距离
2.744574E-6 低风险 0.44
CDM_260903-152505-370605-474822
2026-09-03T
15:25:41+0000
1.950 km
极远距离
2.135918E-6 低风险 0.42